Overview Statistics Trail Chart Weather Telemetry Raw packets
 

This is the latest recevied weather packets stored in our database for station/object DL2GPS-3. If no packets are shown the sender has not sent any weather packets the latest 10 day(s).

<< 21 22 23 24 25 26 27 >>
Time Temp. Humidity Pressure Rain* Wind** Luminosity Snow
1788373049 17.78° C 74% 1025.1 hPa - - - -
1788372444 17.78° C 73% 1025 hPa - - - -
1788371839 18.33° C 71% 1024.9 hPa - - - -
1788371234 18.89° C 69% 1024.8 hPa - - - -
1788370629 18.89° C 66% 1024.8 hPa - - - -
1788370025 18.89° C 63% 1024.7 hPa - - - -
1788369421 20° C 63% 1024.6 hPa - - - -
1788368816 20° C 63% 1024.6 hPa - - - -
1788368210 20° C 59% 1024.6 hPa - - - -
1788367606 20.56° C 57% 1024.5 hPa - - - -
1788367001 20.56° C 57% 1024.5 hPa - - - -
1788366396 21.11° C 54% 1024.6 hPa - - - -
1788365790 21.11° C 54% 1024.6 hPa - - - -
1788365187 21.11° C 54% 1024.7 hPa - - - -
1788364586 21.67° C 57% 1024.7 hPa - - - -
1788363985 21.67° C 53% 1024.7 hPa - - - -
1788363384 22.22° C 52% 1024.7 hPa - - - -
1788362783 22.22° C 51% 1024.7 hPa - - - -
1788362182 21.67° C 51% 1024.7 hPa - - - -
1788361581 22.22° C 51% 1024.7 hPa - - - -
1788360979 22.78° C 47% 1024.6 hPa - - - -
1788360379 23.89° C 45% 1024.6 hPa - - - -
1788359777 24.44° C 43% 1024.7 hPa - - - -
1788359177 23.89° C 46% 1024.7 hPa - - - -
1788358576 23.33° C 45% 1024.8 hPa - - - -

* Rain since midnight (hover to see other rain measurements)
** Current wind speed in m/s (hover to see current wind gust speed)